Regional Weather Roundup
Issued by NWS

Home | Current Version | Previous Version | Graphics & Text | Print | Product List | Glossary On
Versions: 1 2 3 4 5 6 7 8 9 10 11 12 13 14 15 16 17 18 19 20 21 22 23 24 25 26 27 28 29 30 31 32 33 34 35 36 37 38 39 40 41 42 43 44 45 46 47 48 49 50
000
ASUS43 KLSX 211057
RWRMO

WEATHER SUMMARY FOR MISSOURI
NATIONAL WEATHER SERVICE SPRINGFIELD MO
500 AM CST WED FEB 21 2018

NOTE: "FAIR" INDICATES FEW OR NO CLOUDS BELOW 12,000 FEET WITH NO
       SIGNIFICANT WEATHER AND/OR OBSTRUCTIONS TO VISIBILITY.
       CURRENT SKY AND/OR WEATHER CONDITIONS ARE NOT AVAILABLE FOR
       CHILLICOTHE AND FARMINGTON.

MOZ001>031-035>038-043-044-053-054-211200-
...NORTHERN AND WESTERN MISSOURI...

CITY           SKY/WX    TMP DP  RH WIND       PRES   REMARKS
KANSAS CTY INT MOCLDY    15  11  83 N13       30.50R WCI   1
LEE`S SUMMIT   PTCLDY    18  14  84 N14       30.48F WCI   4
ST JOSEPH      PTCLDY    14   9  80 N13       30.56R WCI   0
CHILLICOTHE      N/A     19  13  77 N6        30.53R WCI  11

$$
MOZ066>068-077>081-088>096-101>105-211200-
...SOUTHWEST MISSOURI...

CITY           SKY/WX    TMP DP  RH WIND       PRES   REMARKS
SPRINGFIELD    CLOUDY    26  25  96 N17       30.33R WCI  13
JOPLIN         CLOUDY    24  22  91 NE10G21   30.40R WCI  14

$$
MOZ032>034-039>042-045>050-055>058-069>072-211200-
...CENTRAL MISSOURI...

CITY           SKY/WX    TMP DP  RH WIND       PRES   REMARKS
COLUMBIA       NOT AVBL
JEFFERSON CITY CLOUDY    26  21  81 N8        30.43R WCI  18
ROLLA          CLOUDY    27  25  93 N13       30.34F WCI  16
SEDALIA        MOCLDY    23  21  92 N13       30.47R WCI  11
WARRENSBURG    MOCLDY    21  18  86 N8        30.49R WCI  12

$$
MOZ051-052-059>065-211200-
...EAST CENTRAL MISSOURI...

CITY           SKY/WX    TMP DP  RH WIND       PRES   REMARKS
ST LOUIS INTL  CLOUDY    29  27  92 N14       30.38R WCI  18

$$
MOZ072>076-082>087-097>100-106>115-211200-
...SOUTH CENTRAL AND SOUTHEAST MISSOURI...

CITY           SKY/WX    TMP DP  RH WIND       PRES   REMARKS
CAPE GIRARDEAU LGT RAIN  37  35  92 N12       30.30S WCI  29
POPLAR BLUFF   LGT RAIN  41  38  89 N18G28    30.30R
WEST PLAINS    CLOUDY    33  31  92 NE9G20    30.30R WCI  25

$$


USA.gov is the U.S. government's official web portal to all federal, state and local government web resources and services.